Weather History for KLRU - July, 2013

Change the Weather History Date:

Thursday, July 11, 2013

  Actual Average Record
Temperature  
Mean Temperature 84 °F -  
Max Temperature 96 °F 93 °F 102 °F (1998)
Min Temperature 72 °F 69 °F 62 °F (2005)
Cooling Degree Days 19    
Growing Degree Days 34 (Base 50)    
Moisture  
Dew Point 55 °F    
Average Humidity 40    
Maximum Humidity 70    
Minimum Humidity 20    
Precipitation  
Precipitation 0.00 in - - ()
Sea Level Pressure  
Sea Level Pressure 30.08 in    
Wind  
Wind Speed 9 mph (ENE)    
Max Wind Speed 23 mph    
Max Gust Speed 29 mph    
Visibility 10 miles    
Events Thunderstorm    
Averages and records for this station are not official NWS values.
T = Trace of Precipitation, MM = Missing Value Source: NWS Daily Summary

Daily Weather History Graph

Daily Weather History Graph

Search for Another Location

Airport or City:

Trip Planner

Search our weather history database for the weather conditions in past years. The results will help you decide how hot, cold, wet, or windy it might be!

Date:

Astronomy

Jul. 11, 2013 Rise Set
Actual Time 6:09 AM MDT 8:16 PM MDT
Civil Twilight 5:41 AM MDT 8:44 PM MDT
Nautical Twilight 5:07 AM MDT 9:18 PM MDT
Astronomical Twilight 4:30 AM MDT 9:55 PM MDT
Moon 9:16 AM MDT (7/11) 10:14 PM MDT (7/11)
Length of Visible Light 15h 03m
Length of Day
14h 07m
Waxing Crescent, 11% of the Moon is Illuminated
Jul 11
Waxing Crescent
Jul 15
First Quarter
Jul 22
Full
Jul 29
Last Quarter
Aug 6
New

Hourly Weather History & Observations

Time (MDT) Temp. Heat Index Dew Point Humidity Pressure Visibility Wind Dir Wind Speed Gust Speed Precip Events Conditions
12:15 AM 84.2 °F - 49.1 °F 29% 30.08 in 10.0 mi South 8.1 mph - N/A   Clear
12:35 AM 83.3 °F - 49.1 °F 30% 30.09 in 10.0 mi South 9.2 mph - N/A   Clear
12:55 AM 82.6 °F - 48.9 °F 31% 30.08 in 10.0 mi South 10.4 mph - N/A   Scattered Clouds
1:15 AM 82.2 °F - 48.7 °F 31% 30.08 in 10.0 mi South 9.2 mph - N/A   Scattered Clouds
1:35 AM 82.4 °F - 49.1 °F 31% 30.08 in 10.0 mi South 10.4 mph - N/A   Scattered Clouds
1:55 AM 81.9 °F - 49.1 °F 32% 30.09 in 10.0 mi South 9.2 mph - N/A   Scattered Clouds
2:15 AM 81.5 °F - 49.3 °F 32% 30.09 in 10.0 mi SSW 9.2 mph - N/A   Clear
2:35 AM 81.0 °F - 49.3 °F 33% 30.09 in 10.0 mi SW 9.2 mph - N/A   Clear
2:55 AM 80.4 °F - 50.0 °F 34% 30.09 in 10.0 mi WSW 9.2 mph - N/A   Scattered Clouds
3:15 AM 79.7 °F - 52.7 °F 39% 30.09 in 10.0 mi West 10.4 mph - N/A   Scattered Clouds
3:35 AM 78.8 °F - 53.4 °F 41% 30.09 in 10.0 mi West 10.4 mph - N/A   Mostly Cloudy
3:55 AM 78.1 °F - 58.1 °F 50% 30.10 in 10.0 mi West 11.5 mph - N/A   Scattered Clouds
4:15 AM 77.4 °F - 60.1 °F 55% 30.10 in 10.0 mi WNW 6.9 mph - N/A   Clear
4:35 AM 76.8 °F - 60.6 °F 57% 30.09 in 10.0 mi WNW 4.6 mph - N/A   Clear
4:55 AM 76.3 °F - 60.6 °F 58% 30.10 in 10.0 mi West 5.8 mph - N/A   Clear
5:15 AM 75.6 °F - 60.4 °F 59% 30.11 in 10.0 mi Calm Calm - N/A   Clear
5:35 AM 74.3 °F - 60.1 °F 61% 30.11 in 10.0 mi Calm Calm - N/A   Clear
5:55 AM 75.2 °F - 59.7 °F 58% 30.12 in 10.0 mi North 13.8 mph 17.3 mph N/A   Clear
6:15 AM 74.3 °F - 61.2 °F 63% 30.14 in 10.0 mi North 15.0 mph 19.6 mph N/A   Clear
6:35 AM 72.9 °F - 61.0 °F 66% 30.15 in 10.0 mi North 15.0 mph 19.6 mph N/A   Clear
6:55 AM 72.5 °F - 60.6 °F 66% 30.14 in 10.0 mi North 19.6 mph 26.5 mph N/A   Clear
7:15 AM 72.1 °F - 61.7 °F 70% 30.14 in 10.0 mi North 20.7 mph 26.5 mph N/A   Clear
7:35 AM 72.3 °F - 61.7 °F 69% 30.14 in 10.0 mi NNW 23.0 mph 28.8 mph N/A   Clear
7:55 AM 72.9 °F - 61.2 °F 67% 30.15 in 10.0 mi NNW 20.7 mph 25.3 mph N/A   Clear
8:15 AM 73.4 °F - 61.0 °F 65% 30.14 in 10.0 mi NNW 17.3 mph - N/A   Clear
8:35 AM 75.4 °F - 61.2 °F 61% 30.14 in 10.0 mi NNW 16.1 mph - N/A   Clear
8:55 AM 76.1 °F - 61.0 °F 59% 30.14 in 10.0 mi North 16.1 mph - N/A   Clear
9:15 AM 78.8 °F - 60.4 °F 53% 30.14 in 10.0 mi North 12.7 mph - N/A   Clear
9:35 AM 81.5 °F 81.5 °F 57.7 °F 44% 30.14 in 10.0 mi North 10.4 mph - N/A   Clear
9:55 AM 82.9 °F 82.4 °F 57.2 °F 41% 30.14 in 10.0 mi North 10.4 mph - N/A   Clear
10:15 AM 84.6 °F 83.5 °F 56.5 °F 38% 30.14 in 10.0 mi NNE 8.1 mph - N/A   Clear
10:35 AM 85.5 °F 84.1 °F 55.9 °F 36% 30.14 in 10.0 mi North 5.8 mph - N/A   Clear
10:55 AM 87.3 °F 85.7 °F 55.9 °F 34% 30.14 in 10.0 mi East 9.2 mph - N/A   Clear
11:15 AM 87.1 °F 85.5 °F 55.4 °F 34% 30.13 in 10.0 mi East 5.8 mph - N/A   Clear
11:35 AM 87.4 °F 85.7 °F 55.2 °F 33% 30.12 in 10.0 mi Calm Calm - N/A   Clear
11:55 AM 88.0 °F 86.3 °F 55.4 °F 33% 30.12 in 10.0 mi Calm Calm - N/A   Clear
12:15 PM 88.0 °F 86.1 °F 54.9 °F 32% 30.12 in 10.0 mi Calm Calm - N/A   Clear
12:35 PM 89.2 °F 87.3 °F 55.2 °F 31% 30.11 in 10.0 mi West 3.5 mph - N/A   Clear
12:55 PM 92.7 °F 90.4 °F 54.0 °F 27% 30.10 in 10.0 mi South 5.8 mph - N/A   Clear
1:15 PM 92.7 °F 90.4 °F 54.1 °F 27% 30.09 in 10.0 mi SSW 9.2 mph - N/A   Scattered Clouds
1:35 PM 92.1 °F 90.0 °F 54.3 °F 28% 30.08 in 10.0 mi ESE 11.5 mph - N/A   Mostly Cloudy
1:55 PM 93.4 °F 91.3 °F 54.7 °F 27% 30.08 in 10.0 mi ESE 9.2 mph - N/A   Scattered Clouds
2:15 PM 94.5 °F 92.1 °F 53.6 °F 25% 30.07 in 10.0 mi NE 8.1 mph - N/A   Scattered Clouds
2:35 PM 95.5 °F - 49.1 °F 21% 30.06 in 10.0 mi ESE 12.7 mph 17.3 mph N/A   Scattered Clouds
2:55 PM 96.3 °F - 49.1 °F 20% 30.05 in 10.0 mi SSE 8.1 mph 19.6 mph N/A   Scattered Clouds
3:15 PM 96.4 °F - 49.8 °F 21% 30.05 in 10.0 mi SSE 10.4 mph 16.1 mph N/A   Scattered Clouds
3:35 PM 96.3 °F - 49.6 °F 20% 30.04 in 10.0 mi South 12.7 mph 17.3 mph N/A   Scattered Clouds
3:55 PM 94.8 °F - 49.5 °F 21% 30.03 in 10.0 mi SW 8.1 mph 18.4 mph N/A Thunderstorm Scattered Clouds
4:15 PM 89.8 °F 87.7 °F 54.9 °F 30% 30.04 in 10.0 mi NW 12.7 mph 19.6 mph N/A   Mostly Cloudy
4:35 PM 86.4 °F 84.9 °F 55.6 °F 35% 30.04 in 10.0 mi NNW 10.4 mph - N/A   Mostly Cloudy
4:55 PM 86.5 °F 84.9 °F 54.9 °F 34% 30.03 in 10.0 mi NW 10.4 mph - N/A Thunderstorm Clear
5:15 PM 87.8 °F 86.1 °F 55.0 °F 33% 30.03 in 10.0 mi West 10.4 mph - N/A Thunderstorm Thunderstorm
5:35 PM 85.1 °F 83.8 °F 55.4 °F 36% 30.02 in 10.0 mi Calm Calm - N/A Thunderstorm Mostly Cloudy
5:55 PM 85.3 °F 84.6 °F 58.3 °F 40% 30.03 in 10.0 mi Calm Calm - N/A   Scattered Clouds
6:15 PM 87.1 °F 85.3 °F 54.5 °F 33% 30.04 in 10.0 mi SSE 11.5 mph 17.3 mph N/A   Scattered Clouds
6:35 PM 86.4 °F 84.5 °F 53.8 °F 33% 30.03 in 10.0 mi SE 6.9 mph - N/A   Clear
6:55 PM 86.0 °F 84.2 °F 54.0 °F 33% 30.03 in 10.0 mi SE 3.5 mph - N/A   Clear
7:15 PM 85.3 °F 83.9 °F 55.2 °F 36% 30.03 in 10.0 mi SSW 4.6 mph - N/A   Clear
7:35 PM 84.2 °F 83.5 °F 57.7 °F 40% 30.03 in 10.0 mi Calm Calm - N/A   Clear
7:55 PM 84.4 °F 83.5 °F 57.2 °F 39% 30.03 in 10.0 mi Calm Calm - N/A   Scattered Clouds
8:15 PM 85.1 °F 83.6 °F 54.9 °F 35% 30.03 in 10.0 mi East 3.5 mph - N/A   Mostly Cloudy
8:35 PM 85.1 °F 83.6 °F 54.5 °F 35% 30.03 in 10.0 mi ENE 3.5 mph - N/A   Mostly Cloudy
8:55 PM 85.1 °F 83.5 °F 53.8 °F 34% 30.03 in 10.0 mi ENE 3.5 mph - N/A   Overcast
9:15 PM 84.7 °F 83.1 °F 53.6 °F 34% 30.03 in 10.0 mi East 3.5 mph - N/A   Mostly Cloudy
9:35 PM 84.2 °F 82.8 °F 53.4 °F 35% 30.03 in 10.0 mi East 4.6 mph - N/A   Scattered Clouds
9:55 PM 83.7 °F 82.3 °F 53.2 °F 35% 30.04 in 10.0 mi East 4.6 mph - N/A   Scattered Clouds
10:15 PM 83.8 °F 82.4 °F 53.1 °F 35% 30.04 in 10.0 mi East 4.6 mph - N/A   Clear
10:35 PM 82.6 °F - 52.7 °F 35% 30.05 in 10.0 mi East 4.6 mph - N/A   Clear
10:55 PM 81.9 °F 81.1 °F 54.0 °F 38% 30.05 in 10.0 mi Calm Calm - N/A   Clear
11:15 PM 81.9 °F 81.1 °F 54.1 °F 38% 30.05 in 10.0 mi Calm Calm - N/A   Scattered Clouds
11:35 PM 80.8 °F 80.4 °F 53.6 °F 39% 30.05 in 10.0 mi SSE 3.5 mph - N/A   Scattered Clouds
11:55 PM 80.1 °F 80.0 °F 54.0 °F 40% 30.05 in 10.0 mi Calm Calm - N/A   Scattered Clouds